Weather in Oshawa

Canada     43°54′04″N   78°51′10″W
temp.,
°C
wind,
m/s
gust,
m/s
humid.,
%
clouds,
%
prec.,
mm/h
press.,
hPa
HPBL,
m
17 june, thu
thu1723:00+10nnw411620 0.0 1016186
02:00+8nw4975100 0.0 1016135
05:00+9nnw48645 0.0 1016110
08:00+13nw35575 0.0 1016192
11:00+19wsw34435 0.0 1016964
14:00+22sw463856 0.0 10151631
17:00+22sw354166 0.0 10141382
20:00+18ssw4767100 0.0 1014199
18 june, fri
fri1823:00+14sw39835 0.0 1014188
02:00+12ssw25919 0.0 101380
05:00+13ssw2691100 0.0 1013114
08:00+17ssw41286100 0.0 1012452
11:00+19ssw5979100 0.0 1011486
14:00+19ssw71281100 0.1 1009800
17:00+18ssw51293100 0.2 1008586
20:00+17se2598100 0.3 1007158
19 june, sat
sat1923:00+15ese119835 0.0 100615
02:00+16s229898 0.0 100439
05:00+17w259858 2.2 1003193
08:00+18w36912 3.3 1003289
11:00+21nw79640 0.1 1004961
14:00+23nw795188 0.1 10042053
17:00+21nw596177 0.0 1005778
20:00+18nw510685 0.0 1006508
20 june, sun
sun2023:00+14nw410820 0.0 1008225
02:00+12nnw49892 0.0 1008183
05:00+11nnw36945 0.0 1009113
08:00+16nw24760 0.0 1010251
11:00+21wsw22585 0.0 10101034
14:00+22s545549 0.1 1009978
17:00+22s344843 0.0 1008730
20:00+18s2269100 0.0 100825
21 june, mon
mon2123:00+14se2382100 0.0 100725
02:00+14sse229295 0.0 100629
05:00+14se239110 0.0 100446
08:00+18sse3681100 0.0 1002231
11:00+21sse6137945 1.6 999695
14:00+24ssw91781100 2.6 9971398
17:00+26sw5974100 1.9 9991143
20:00+21wnw71192100 5.3 999626